Vorticity
5 5 6 6 7 5 7 4 7 5 4 5 9 11 8 7 5 4 2 1 2 2
6 6 6 6 6 5 7 4 4 4 6 5 8 12 8 5 5 3 2 2 2 3
6 5 6 5 4 6 3 7 -1 8 4 -4 4 16 8 6 5 3 3 3 3 5
7 7 6 9 5 3 -9 24 -20 -2 25 -10 7 16 6 5 4 3 3 3 6 6
10 7 10 14 -3 14 -1 -4 -5 19 -10 18 6 12 5 4 3 3 4 6 6 5
10 8 12 4 16 21 18 -12 19 4 5 11 10 6 4 3 3 4 6 7 5 5
9 10 10 12 5 -7 18 4 2 18 11 10 6 4 3 4 5 7 7 5 6 9
11 11 11 11 13 -0 6 16 9 7 8 5 4 3 5 6 7 8 4 7 9 10
10 11 11 11 19 12 -1 8 11 6 4 4 4 5 6 7 8 5 7 8 10 12
10 11 8 2 9 15 11 7 5 5 5 5 6 5 6 8 6 6 8 9 11 13
10 11 12 11 9 8 6 5 5 5 6 4 3 8 9 8 7 8 10 15 17 11
10 10 9 8 7 6 6 6 6 6 1 3 12 11 11 8 9 10 14 14 9 8
9 9 8 7 6 6 7 7 1 0 9 13 13 9 6 6 8 12 12 8 6 6
8 8 6 6 7 6 3 2 2 13 14 12 8 6 7 12 13 11 9 7 7 7
Height
3143 3146 3148 3150 3151 3152 3153 3154 3154 3154 3153 3153 3153 3152 3151 3151 3150 3149 3147 3145 3143 3139
3137 3140 3143 3144 3145 3146 3147 3148 3148 3149 3149 3148 3148 3148 3147 3146 3145 3143 3141 3139 3137 3134
3132 3134 3137 3138 3140 3141 3142 3143 3143 3143 3145 3143 3144 3143 3142 3141 3140 3138 3136 3133 3131 3127
3126 3129 3131 3132 3134 3135 3137 3138 3137 3138 3138 3137 3138 3137 3136 3135 3134 3132 3130 3127 3124 3120
3120 3122 3125 3129 3128 3129 3131 3132 3130 3133 3133 3133 3131 3131 3130 3129 3128 3126 3123 3120 3116 3111
3113 3115 3118 3121 3122 3123 3125 3126 3127 3127 3126 3126 3125 3125 3123 3122 3120 3118 3115 3112 3107 3103
3106 3109 3111 3113 3116 3118 3118 3119 3119 3120 3119 3120 3119 3118 3116 3114 3112 3109 3106 3103 3099 3095
3100 3103 3105 3106 3108 3110 3111 3111 3111 3112 3113 3112 3111 3110 3108 3106 3104 3102 3098 3094 3090 3086
3093 3096 3098 3100 3101 3102 3103 3105 3105 3106 3105 3105 3104 3103 3101 3098 3096 3093 3091 3086 3082 3077
3086 3089 3092 3094 3095 3096 3097 3098 3098 3098 3098 3097 3096 3094 3092 3090 3087 3083 3080 3076 3071 3067
3079 3082 3085 3086 3088 3091 3092 3092 3092 3091 3090 3089 3088 3086 3083 3081 3078 3075 3071 3066 3062 3058
3072 3075 3079 3081 3083 3084 3085 3085 3085 3084 3082 3081 3080 3077 3075 3072 3069 3065 3062 3058 3054 3049
3066 3069 3072 3074 3076 3077 3078 3078 3077 3076 3075 3074 3071 3069 3066 3063 3059 3054 3051 3049 3045 3040
3059 3062 3065 3067 3068 3070 3069 3069 3069 3068 3066 3064 3062 3060 3056 3053 3050 3046 3043 3038 3035 3030